Regional Weather Roundup
Issued by NWS

Home | Current Version | Previous Version | Graphics & Text | Print | Product List | Glossary On
Versions: 1 2 3 4 5 6 7 8 9 10 11 12 13 14 15 16 17 18 19 20 21 22 23 24 25 26 27 28 29 30 31 32 33 34 35 36 37 38 39 40 41 42 43 44 45 46 47 48 49 50
338
ASUS45 KPSR 232110
RWRAZ

ARIZONA HOURLY REGIONAL WEATHER ROUNDUP
NATIONAL WEATHER SERVICE PHOENIX AZ
200 PM MST MON APR 23 2018

NOTE: FAIR INDICATES FEW OR NO CLOUDS BELOW 12,000 FEET WITH NO
SIGNIFICANT WEATHER AND/OR OBSTRUCTIONS TO VISIBILITY.

AZZ001>003-036-232200-
NORTHWEST ARIZONA

CITY           SKY/WX    TMP DP  RH WIND       PRES   REMARKS
BULLHEAD CITY  SUNNY     95  21   7 SW10G18   29.86F
KINGMAN        SUNNY     86  24  10 W15G24    30.03F
$$

AZZ004>008-015-016-018-232200-
NORTH CENTRAL ARIZONA

CITY           SKY/WX    TMP DP  RH WIND       PRES   REMARKS
GRAND CANYON   SUNNY     73  12   9 SW8G26    30.18F
WILLIAMS       SUNNY     72  10   9 SW10G21   30.18F
PRESCOTT       SUNNY     78  16   9 MISG      30.11F
FLAGSTAFF      SUNNY     69  18  14 S15G33    30.21F
PAYSON         SUNNY     77  12   8 VRB6G17   30.12F
PAGE           SUNNY     83  18   9 VRB6      30.00F
$$

AZZ009>014-017-232200-
NORTHEAST ARIZONA

CITY           SKY/WX    TMP DP  RH WIND       PRES   REMARKS
WINSLOW        SUNNY     82  21  10 SE13      30.07F
SAINT JOHNS    SUNNY     78  12   8 W9G25     30.11F
WINDOW ROCK    SUNNY     75  10   8 W8G20     30.16F
SHOW LOW       SUNNY     75  12   9 S9G20     30.18F
$$

AZZ540-542>544-546-548-232200-
GREATER PHOENIX AREA

CITY           SKY/WX    TMP DP  RH WIND       PRES   REMARKS
PHOENIX        MOSUNNY   92  23   8 VRB6      29.90F
BUCKEYE        SUNNY     91  28  10 SE8       29.92F
GLENDALE       SUNNY     93  21   7 SW6       29.92F
DEER VALLEY    SUNNY     90  20   7 SE6       29.92F
SCOTTSDALE     SUNNY     91  28  10 S3        29.94F
MESA-FALCON    SUNNY     91  28  10 W8        29.93F
MESA-GATEWAY   MOSUNNY   91  27   9 W7        29.93F
CHANDLER       MOSUNNY   93  23   8 W6        29.92F
$$

AZZ539-553-232200-
SOUTHWEST MARICOPA COUNTY AND PINAL COUNTY

CITY           SKY/WX    TMP DP  RH WIND       PRES   REMARKS
CASA GRANDE    SUNNY     91  26   9 SW5       29.93F
GILA BEND      MOSUNNY   93  22   7 N7        29.89F
$$

AZZ503-504-507>509-232200-
SOUTHEAST ARIZONA

CITY           SKY/WX    TMP DP  RH WIND       PRES   REMARKS
TUCSON         SUNNY     90  20   7 CALM      29.98F
DAVIS-MONTHAN  SUNNY     93  20   7 W5        29.97F
RYAN FIELD     SUNNY     90  25   9 S8        29.98F
NOGALES        SUNNY     88  17   7 SW10G18   30.04F
DOUGLAS        SUNNY     84  17   8 S7G16     30.06F
SAFFORD        SUNNY     89  20   8 N6        29.98F
$$

AZZ532-232200-
SOUTHWEST ARIZONA

CITY           SKY/WX    TMP DP  RH WIND       PRES   REMARKS
YUMA           MOSUNNY   93  37  14 W6        29.88F
$$

CAZ041-043-047-048-061-525>527-560>570-232200-
SOUTHERN CALIFORNIA

CITY           SKY/WX    TMP DP  RH WIND       PRES   REMARKS
DOWNTOWN L.A.  NOT AVBL
L.A. AIRPORT   MOSUNNY   66  55  67 W12       29.99F
SAN DIEGO      PTSUNNY   67  55  65 NW10      30.00F
BURBANK        SUNNY     81  52  36 S8        29.96F
ONTARIO        PTSUNNY   84  44  24 SW10      29.96F
RIVERSIDE      SUNNY     86  43  22 W10       29.95F
PALM SPRINGS   SUNNY     97  28   8 SE15      29.88F
EL CENTRO NAS  MOSUNNY   94  27   9 SE6       29.87F
IMPERIAL       SUNNY     95  32  11 E8        29.85F
BLYTHE         SUNNY     94  32  11 S7        29.87F
NEEDLES        SUNNY     99  20   6 W9G21     29.88F
$$

NVZ020-UTZ003-232200-
SOUTHERN NEVADA-UTAH

CITY           SKY/WX    TMP DP  RH WIND       PRES   REMARKS
LAS VEGAS      MOSUNNY   90  23   9 VRB7      29.92F
SALT LAKE CITY PTSUNNY   64  27  24 NW17G25   30.15S
$$

NMZ009-TXZ055-232200-
NEW MEXICO-WEST TEXAS

CITY           SKY/WX    TMP DP  RH WIND       PRES   REMARKS
ALBUQUERQUE    MOSUNNY   78  22  12 NW8       30.08F
EL PASO        MOSUNNY   86  25  11 W10       30.04F
$$


........................KEY........................
SKY/WX - SKY CONDITION/WEATHER
TMP    - TEMPERATURE IN FAHRENHEIT
DP     - DEW POINT IN FAHRENHEIT
RH     - RELATIVE HUMIDITY IN PERCENT
WIND   - DIRECTION AND SPEED IN MILES PER HOUR (MPH)
VRB    - VARIABLE WIND DIRECTION
PRES   - MEAN SEA LEVEL PRESSURE IN INCHES OF MERCURY
         F - FALLING PRESSURE   R - RISING PRESSURE
         S - STEADY PRESSURE
VSB    - VISIBILITY IN MILES
HX     - HEAT INDEX IN FAHRENHEIT
WCI    - WIND CHILL INDEX IN FAHRENHEIT
TC     - TEMPERATURE IN CELSIUS WHICH IS ALSO KNOWN AS
         TEMPERATURE IN CENTIGRADE
AFB    - AIR FORCE BASE
         LUKE AFB IS LUKE AIR FORCE BASE
         DAVIS-MONTHAN IS DAVIS-MONTHAN AIR FORCE BASE
NAS    - NAVAL AIR STATION
         EL CENTRO NAS IS EL CENTRO NAVAL AIR STATION
N/A    - NOT AVAILABLE





USA.gov is the U.S. government's official web portal to all federal, state and local government web resources and services.